ELFIN-B (43616 NORAD) Tracking and Keplerian Element Data

This shows tracking and keplerian element data for the satellite.

Feedback or suggestion? Click here.




ElementValue
Catalog43616
NameELFIN-B
Epoch Orbit4752
Epoch Day202.92170685
Epoch Year2019
RAAN17.2846
Inclination93.0202
Eccentricity0.0017088
Argument of Perigee171.4958
Mean Anonmoly188.6589
Mean Motion15.38198554
Decay Rate2.156E-05
L11 43616U 18070D 19202.92170685 .00002156 00000-0 57300-4 0 9991
L22 43616 93.0202 17.2846 0017088 171.4958 188.6589 15.38198554 47527

Live tracking and technical data element details for ELFIN-B (NORAD 43616). ELFIN-B can be tracked NOW for your location showing map with azimuth and elevation plus other details from your city location.

Track the satellite on the map from your city or location and see movement details for azimuth, elevation, latitude, longitude, range, height, and movement on the map or in text.







IsCatalogInMostPopularTable: catalog: 43616, numindb: 127
Update: records affected: 1



GetName: 43616 ELFIN-B

Hit Count: updated at: Mon, 22 Jul 2019 16:49:16 GMT